Weather History for Medford, WI

Change the Weather History Date:

Sunday, October 13, 2013

  Actual Average Record
Temperature  
Mean Temperature 44 °F -  
Max Temperature 56 °F 55 °F 80 °F (1956)
Min Temperature 33 °F 36 °F 21 °F (1988)
Degree Days  
Heating Degree Days 21    
Moisture  
Dew Point 35 °F    
Average Humidity 72    
Maximum Humidity 99    
Minimum Humidity 37    
Precipitation  
Precipitation 0.00 in - - ()
Sea Level Pressure  
Sea Level Pressure 30.31 in    
Wind  
Wind Speed 7 mph (WNW)    
Max Wind Speed 10 mph    
Max Gust Speed 18 mph    
Visibility 10 miles    
Events Fog    
Averages and records for this station are not official NWS values.
T = Trace of Precipitation, MM = Missing Value Source: NWS Daily Summary

Daily Weather History Graph

Daily Weather History Graph

Search for Another Location

Airport:

Trip Planner

Search our weather history database for the weather conditions in past years. The results will help you decide how hot, cold, wet, or windy it might be!

Date:

Astronomy

Oct. 13, 2013 Rise Set
Actual Time 7:14 AM CDT 6:19 PM CDT
Civil Twilight 6:45 AM CDT 6:48 PM CDT
Nautical Twilight 6:11 AM CDT 7:22 PM CDT
Astronomical Twilight 5:36 AM CDT 7:56 PM CDT
Moon 3:23 PM CDT (10/13) 1:10 AM CDT (10/13)
Length of Visible Light 12h 03m
Length of Day
11h 04m
Waxing Gibbous, 69% of the Moon is Illuminated
Oct 13
Waxing Gibbous
Oct 18
Full
Oct 26
Last Quarter
Nov 3
New
Nov 9
First Quarter

Hourly Weather History & Observations

Time (CDT) Temp. Windchill Dew Point Humidity Pressure Visibility Wind Dir Wind Speed Gust Speed Precip Events Conditions
12:15 AM 46.6 °F - 39.9 °F 78% 30.12 in 10.0 mi West 10.4 mph 16.1 mph N/A   Overcast
12:35 AM 46.6 °F - 40.1 °F 78% 30.12 in 10.0 mi West 8.1 mph - N/A   Overcast
12:55 AM 46.6 °F - 40.1 °F 78% 30.14 in 10.0 mi West 9.2 mph - N/A   Overcast
1:15 AM 46.4 °F 42.9 °F 40.3 °F 79% 30.15 in 10.0 mi West 6.9 mph - N/A   Overcast
1:35 AM 46.4 °F 42.4 °F 40.5 °F 80% 30.16 in 10.0 mi West 8.1 mph - N/A   Overcast
1:55 AM 46.4 °F 42.4 °F 40.5 °F 80% 30.17 in 10.0 mi West 8.1 mph - N/A   Overcast
2:15 AM 46.4 °F 43.5 °F 40.6 °F 80% 30.17 in 10.0 mi WSW 5.8 mph - N/A   Overcast
2:35 AM 46.4 °F 43.5 °F 40.8 °F 81% 30.18 in 10.0 mi West 5.8 mph - N/A   Overcast
2:55 AM 45.9 °F 41.2 °F 40.8 °F 83% 30.18 in 10.0 mi West 9.2 mph - N/A   Overcast
3:15 AM 45.7 °F 41.0 °F 41.0 °F 84% 30.18 in 10.0 mi West 9.2 mph - N/A   Overcast
3:35 AM 45.1 °F 40.3 °F 40.1 °F 82% 30.19 in 10.0 mi West 9.2 mph 16.1 mph N/A   Overcast
3:55 AM 44.4 °F 40.5 °F 40.1 °F 85% 30.20 in 10.0 mi West 6.9 mph - N/A   Mostly Cloudy
4:15 AM 43.7 °F 38.6 °F 40.1 °F 87% 30.20 in 10.0 mi West 9.2 mph - N/A   Mostly Cloudy
4:35 AM 42.8 °F 38.0 °F 39.7 °F 89% 30.21 in 10.0 mi West 8.1 mph - N/A   Scattered Clouds
4:55 AM 41.5 °F 36.4 °F 39.4 °F 92% 30.21 in 10.0 mi West 8.1 mph - N/A   Clear
5:15 AM 40.6 °F 35.4 °F 39.2 °F 95% 30.22 in 10.0 mi West 8.1 mph - N/A   Clear
5:35 AM 40.3 °F 35.5 °F 39.0 °F 95% 30.23 in 10.0 mi West 6.9 mph - N/A   Clear
5:55 AM 39.7 °F 35.6 °F 38.5 °F 95% 30.24 in 10.0 mi West 5.8 mph - N/A   Clear
6:15 AM 38.8 °F 34.6 °F 37.8 °F 96% 30.25 in 10.0 mi West 5.8 mph - N/A   Clear
6:35 AM 38.8 °F 36.5 °F 37.9 °F 97% 30.26 in 10.0 mi West 3.5 mph - N/A   Clear
6:55 AM 38.3 °F - 37.6 °F 97% 30.27 in 10.0 mi Calm Calm - N/A   Scattered Clouds
7:15 AM 38.1 °F 33.7 °F 37.4 °F 97% 30.28 in 10.0 mi West 5.8 mph - N/A   Scattered Clouds
7:35 AM 37.9 °F 33.5 °F 37.4 °F 98% 30.29 in 7.0 mi West 5.8 mph - N/A   Mostly Cloudy
7:55 AM 38.5 °F 34.1 °F 37.9 °F 98% 30.30 in 2.0 mi West 5.8 mph - N/A   Overcast
8:15 AM 39.2 °F 34.2 °F 38.7 °F 98% 30.31 in 0.5 mi West 6.9 mph - N/A Fog Fog
8:35 AM 39.6 °F 34.7 °F 39.2 °F 99% 30.33 in 4.0 mi West 6.9 mph - N/A   Overcast
8:55 AM 40.6 °F 35.4 °F 39.6 °F 96% 30.34 in 10.0 mi West 8.1 mph - N/A   Overcast
9:15 AM 41.9 °F 36.3 °F 39.6 °F 91% 30.35 in 10.0 mi West 9.2 mph - N/A   Overcast
9:35 AM 43.3 °F 38.6 °F 39.6 °F 87% 30.36 in 10.0 mi West 8.1 mph - N/A   Overcast
9:55 AM 45.1 °F 42.0 °F 39.9 °F 82% 30.37 in 10.0 mi WNW 5.8 mph - N/A   Mostly Cloudy
10:15 AM 46.0 °F 41.4 °F 39.2 °F 77% 30.37 in 10.0 mi WNW 9.2 mph - N/A   Mostly Cloudy
10:55 AM 48.7 °F - 37.4 °F 65% 30.38 in 10.0 mi NW 10.4 mph - N/A   Mostly Cloudy
11:15 AM 49.3 °F - 36.7 °F 62% 30.38 in 10.0 mi NW 10.4 mph - N/A   Mostly Cloudy
11:35 AM 49.6 °F - 35.8 °F 59% 30.38 in 10.0 mi NW 9.2 mph - N/A   Scattered Clouds
11:55 AM 51.1 °F - 35.4 °F 55% 30.39 in 10.0 mi NNW 8.1 mph 16.1 mph N/A   Scattered Clouds
12:15 PM 52.0 °F - 34.7 °F 52% 30.39 in 10.0 mi WNW 8.1 mph 18.4 mph N/A   Scattered Clouds
12:35 PM 52.7 °F - 35.8 °F 53% 30.38 in 10.0 mi NW 6.9 mph - N/A   Clear
12:55 PM 53.2 °F - 35.2 °F 51% 30.37 in 10.0 mi NW 5.8 mph - N/A   Clear
1:15 PM 54.1 °F - 34.7 °F 48% 30.36 in 10.0 mi NNW 10.4 mph 17.3 mph N/A   Clear
1:35 PM 54.1 °F - 33.8 °F 46% 30.36 in 10.0 mi WNW 9.2 mph - N/A   Clear
1:55 PM 54.1 °F - 33.6 °F 46% 30.36 in 10.0 mi North 8.1 mph - N/A   Clear
2:15 PM 54.7 °F - 32.2 °F 42% 30.36 in 10.0 mi WNW 4.6 mph 16.1 mph N/A   Clear
2:35 PM 55.0 °F - 33.1 °F 43% 30.35 in 10.0 mi WNW 6.9 mph - N/A   Clear
2:55 PM 55.2 °F - 32.5 °F 42% 30.34 in 10.0 mi North 5.8 mph - N/A   Clear
3:15 PM 55.6 °F - 32.2 °F 41% 30.34 in 10.0 mi North 8.1 mph - N/A   Clear
3:35 PM 55.6 °F - 31.3 °F 40% 30.34 in 10.0 mi NW 5.8 mph - N/A   Clear
3:55 PM 55.6 °F - 31.6 °F 40% 30.34 in 10.0 mi West 5.8 mph - N/A   Clear
4:15 PM 54.7 °F - 30.2 °F 39% 30.34 in 10.0 mi NNW 6.9 mph - N/A   Clear
4:35 PM 55.6 °F - 30.7 °F 39% 30.34 in 10.0 mi WNW 3.5 mph - N/A   Clear
4:55 PM 55.4 °F - 30.0 °F 38% 30.34 in 10.0 mi West 9.2 mph - N/A   Clear
5:15 PM 55.2 °F - 30.4 °F 39% 30.35 in 10.0 mi West 4.6 mph - N/A   Clear
5:35 PM 54.3 °F - 28.4 °F 37% 30.35 in 10.0 mi WNW 4.6 mph - N/A   Clear
5:55 PM 52.7 °F - 29.7 °F 41% 30.36 in 10.0 mi West 5.8 mph - N/A   Clear
6:15 PM 50.2 °F - 30.4 °F 47% 30.36 in 10.0 mi West 3.5 mph - N/A   Clear
6:35 PM 48.7 °F - 30.6 °F 50% 30.37 in 10.0 mi West 3.5 mph - N/A   Clear
6:55 PM 47.3 °F - 31.3 °F 54% 30.37 in 10.0 mi Calm Calm - N/A   Clear
7:15 PM 45.1 °F - 30.2 °F 56% 30.38 in 10.0 mi Calm Calm - N/A   Clear
7:35 PM 41.7 °F - 30.9 °F 66% 30.38 in 10.0 mi Calm Calm - N/A   Clear
7:55 PM 39.6 °F - 31.8 °F 74% 30.39 in 10.0 mi Calm Calm - N/A   Clear
8:15 PM 38.3 °F 35.9 °F 31.8 °F 77% 30.39 in 10.0 mi SSW 3.5 mph - N/A   Clear
8:35 PM 38.5 °F - 32.2 °F 78% 30.39 in 10.0 mi Calm Calm - N/A   Clear
8:55 PM 38.8 °F - 31.5 °F 75% 30.39 in 10.0 mi Calm Calm - N/A   Clear
9:15 PM 37.6 °F - 31.6 °F 79% 30.39 in 10.0 mi Calm Calm - N/A   Clear
9:35 PM 37.2 °F - 30.9 °F 78% 30.39 in 10.0 mi Calm Calm - N/A   Clear
9:55 PM 35.6 °F - 31.3 °F 84% 30.39 in 10.0 mi Calm Calm - N/A   Clear
10:15 PM 34.5 °F - 31.8 °F 90% 30.40 in 7.0 mi Calm Calm - N/A   Clear
10:35 PM 34.3 °F - 32.0 °F 91% 30.40 in 7.0 mi Calm Calm - N/A   Clear
10:55 PM 34.7 °F - 32.0 °F 90% 30.40 in 10.0 mi Calm Calm - N/A   Clear
11:15 PM 33.3 °F - 31.1 °F 92% 30.40 in 10.0 mi Calm Calm - N/A   Clear
11:35 PM 34.2 °F - 32.0 °F 92% 30.40 in 10.0 mi Calm Calm - N/A   Clear
11:55 PM 33.4 °F - 31.5 °F 92% 30.40 in 10.0 mi Calm Calm - N/A   Clear